Weather Roundup
Issued by NWS Springfield, MO

Home | Current Version | Previous Version | Text Only | Print | Product List | Glossary On
Versions: 1 2 3 4 5 6 7 8 9 10 11 12 13 14 15 16 17 18 19 20 21 22 23 24 25 26 27 28 29 30 31 32 33 34 35 36 37 38 39 40 41 42 43 44 45 46 47 48 49 50
000
NZUS99 KSGF 220959
HRRSGF

HOURLY WEATHER
NATIONAL WEATHER SERVICE SPRINGFIELD MO
500 AM CDT MON SEP 22 2014

......SGF CWA......

CITY           SKY/WX    TMP DP  RH WIND       PRES   REMARKS
SPRINGFIELD    CLEAR     50  47  89 CALM      30.24R
JOPLIN         CLEAR     52  49  89 NE5       30.26R
WEST PLAINS    CLEAR     52  47  83 N5        30.24R
ROLLA          CLEAR     48  45  89 NW3       30.22R
OSAGE BEACH    CLEAR     48  45  87 CALM      30.25R

......SURROUNDING SGF CWA......

CITY           SKY/WX    TMP DP  RH WIND       PRES   REMARKS
CHANUTE        CLEAR     51  49  92 N3        30.27R
PARSONS        CLEAR     50  49  96 CALM      30.27R
EMPORIA        CLEAR     51  48  89 CALM      30.28R
GROVE OK       CLEAR     54  54 100 CALM      30.25S
SILOAM SPRINGS CLEAR     57  45  62 NE3       30.25R
HARRISON AR    CLEAR     52  49  89 NW3       30.24R
NEAR YELLVILLE CLEAR     55  46  71 N5        30.23R

......KANSAS AND MISSOURI......

CITY           SKY/WX    TMP DP  RH WIND       PRES   REMARKS
KANSAS CTY INT CLEAR     51  48  89 NE5       30.29R
DOWNTOWN KC    CLEAR     54  51  90 NW3       30.28R
COLUMBIA       CLEAR     50  48  93 NW6       30.25R
SEDALIA        CLEAR     51  48  89 NW5       30.26R
ST JOSEPH      CLEAR     45  44  97 CALM      30.30R
ST LOUIS       CLEAR     55  49  80 NW3       30.22R
SPIRIT OF STL  CLEAR     51  48  89 CALM      30.21R
KIRKSVILLE     CLEAR     49  46  90 N3        30.27R
WICHITA        PTCLDY    59  46  62 E5        30.28R
TOPEKA         CLEAR     50  49  96 CALM      30.29S
OLATHE         CLEAR     52  48  86 N5        30.27R

......TENNESSEE......

CITY           SKY/WX    TMP DP  RH WIND       PRES   REMARKS
MEMPHIS        CLEAR     64  51  62 NE7       30.14R
NASHVILLE      CLEAR     57  50  77 N6        30.13R

......ARKANSAS.......

CITY           SKY/WX    TMP DP  RH WIND       PRES   REMARKS
FAYETTEVILLE   CLEAR     49  49 100 CALM      30.24R
FT SMITH       CLEAR     59  54  83 E3        30.20R
LITTLE ROCK    CLEAR     62  49  62 N7        30.17R

......OKLAHOMA.......

CITY           SKY/WX    TMP DP  RH WIND       PRES   REMARKS
TULSA          CLEAR     55  52  89 NW3       30.24R
PONCA CITY     CLEAR     51  47  86 N6        30.26R
MCALESTER      PTCLDY    58  52  80 NE3       30.20R
OKLAHOMA CITY  CLEAR     61  49  64 NE8       30.24R

......IOWA............

CITY           SKY/WX    TMP DP  RH WIND       PRES   REMARKS
DES MOINES     CLEAR     50  47  89 CALM      30.27R
QUAD CITIES    CLEAR     44  42  93 CALM      30.25R

......ILLINOIS........

CITY           SKY/WX    TMP DP  RH WIND       PRES   REMARKS
QUINCY         CLEAR     48  46  93 N3        30.24R
CHICAGO        PTCLDY    47  41  80 NW8       30.20R



USA.gov is the U.S. government's official web portal to all federal, state and local government web resources and services.